owner,sensor,date,latitude,longitude,vertical_datum,sea_water_practical_salinity,qcFlag 
TABS,ioos:station:wmo:42044:1,2016-05-01T00:00:00Z,26.1914,-97.0507,2.0,30.89,11111222 
TABS,ioos:station:wmo:42044:1,2016-05-01T00:30:00Z,26.1914,-97.0507,2.0,30.85,11111222 
TABS,ioos:station:wmo:42044:1,2016-05-01T01:00:00Z,26.1914,-97.0507,2.0,30.61,11111222 
TABS,ioos:station:wmo:42044:1,2016-05-01T01:30:00Z,26.1914,-97.0507,2.0,30.57,11111222 
TABS,ioos:station:wmo:42044:1,2016-05-01T02:00:00Z,26.1914,-97.0507,2.0,30.39,11111222 
TABS,ioos:station:wmo:42044:1,2016-05-01T02:30:00Z,26.1914,-97.0507,2.0,30.31,11111222 
TABS,ioos:station:wmo:42044:1,2016-05-01T03:00:00Z,26.1914,-97.0507,2.0,30.2,11111222 
TABS,ioos:station:wmo:42044:1,2016-05-01T03:30:00Z,26.1914,-97.0507,2.0,30.19,11111222 
TABS,ioos:station:wmo:42044:1,2016-05-01T04:00:00Z,26.1914,-97.0507,2.0,30.17,11111222 
TABS,ioos:station:wmo:42044:1,2016-05-01T04:30:00Z,26.1914,-97.0507,2.0,30.27,11111222 
TABS,ioos:station:wmo:42044:1,2016-05-01T05:00:00Z,26.1914,-97.0507,2.0,30.27,11111222 
TABS,ioos:station:wmo:42044:1,2016-05-01T05:30:00Z,26.1914,-97.0507,2.0,30.32,11111222 
TABS,ioos:station:wmo:42044:1,2016-05-01T06:00:00Z,26.1914,-97.0507,2.0,30.53,11111222 
TABS,ioos:station:wmo:42044:1,2016-05-01T06:30:00Z,26.1914,-97.0507,2.0,30.54,11111222 
TABS,ioos:station:wmo:42044:1,2016-05-01T07:00:00Z,26.1914,-97.0507,2.0,30.65,11111222 
TABS,ioos:station:wmo:42044:1,2016-05-01T07:30:00Z,26.1914,-97.0507,2.0,30.63,11111222 
TABS,ioos:station:wmo:42044:1,2016-05-01T08:00:00Z,26.1914,-97.0507,2.0,30.85,11111222 
TABS,ioos:station:wmo:42044:1,2016-05-01T08:30:00Z,26.1914,-97.0507,2.0,30.77,11111222 
TABS,ioos:station:wmo:42044:1,2016-05-01T09:00:00Z,26.1914,-97.0507,2.0,31.32,11111222 
TABS,ioos:station:wmo:42044:1,2016-05-01T09:30:00Z,26.1914,-97.0507,2.0,31.19,11111222 
TABS,ioos:station:wmo:42044:1,2016-05-01T10:00:00Z,26.1914,-97.0507,2.0,31.31,11111222 
TABS,ioos:station:wmo:42044:1,2016-05-01T10:30:00Z,26.1914,-97.0507,2.0,31.31,11111222 
TABS,ioos:station:wmo:42044:1,2016-05-01T11:00:00Z,26.1914,-97.0507,2.0,31.39,11111222 
TABS,ioos:station:wmo:42044:1,2016-05-01T11:30:00Z,26.1914,-97.0507,2.0,31.34,11111222 
TABS,ioos:station:wmo:42044:1,2016-05-01T12:00:00Z,26.1914,-97.0507,2.0,31.28,11111222 
TABS,ioos:station:wmo:42044:1,2016-05-01T12:30:00Z,26.1914,-97.0507,2.0,31.22,11111222 
TABS,ioos:station:wmo:42044:1,2016-05-01T13:00:00Z,26.1914,-97.0507,2.0,31.23,11111222 
TABS,ioos:station:wmo:42044:1,2016-05-01T13:30:00Z,26.1914,-97.0507,2.0,31.05,11111222 
TABS,ioos:station:wmo:42044:1,2016-05-01T14:00:00Z,26.1914,-97.0507,2.0,30.96,11111222 
TABS,ioos:station:wmo:42044:1,2016-05-01T14:30:00Z,26.1914,-97.0507,2.0,30.83,11111222 
TABS,ioos:station:wmo:42044:1,2016-05-01T15:00:00Z,26.1914,-97.0507,2.0,30.78,11111222 
TABS,ioos:station:wmo:42044:1,2016-05-01T15:30:00Z,26.1914,-97.0507,2.0,30.75,11111222 
TABS,ioos:station:wmo:42044:1,2016-05-01T16:00:00Z,26.1914,-97.0507,2.0,30.73,11111222 
TABS,ioos:station:wmo:42044:1,2016-05-01T16:30:00Z,26.1914,-97.0507,2.0,30.74,11111222 
TABS,ioos:station:wmo:42044:1,2016-05-01T17:00:00Z,26.1914,-97.0507,2.0,30.76,11111222 
TABS,ioos:station:wmo:42044:1,2016-05-01T17:30:00Z,26.1914,-97.0507,2.0,30.72,11111222 
TABS,ioos:station:wmo:42044:1,2016-05-01T18:00:00Z,26.1914,-97.0507,2.0,30.71,11111222 
TABS,ioos:station:wmo:42044:1,2016-05-01T18:30:00Z,26.1914,-97.0507,2.0,30.72,11111222 
TABS,ioos:station:wmo:42044:1,2016-05-01T19:00:00Z,26.1914,-97.0507,2.0,30.68,11111222 
TABS,ioos:station:wmo:42044:1,2016-05-01T19:30:00Z,26.1914,-97.0507,2.0,30.71,11111222 
TABS,ioos:station:wmo:42044:1,2016-05-01T20:00:00Z,26.1914,-97.0507,2.0,30.73,11111222 
TABS,ioos:station:wmo:42044:1,2016-05-01T20:30:00Z,26.1914,-97.0507,2.0,30.81,11111222 
TABS,ioos:station:wmo:42044:1,2016-05-01T21:00:00Z,26.1914,-97.0507,2.0,30.76,11111222 
TABS,ioos:station:wmo:42044:1,2016-05-01T21:30:00Z,26.1914,-97.0507,2.0,30.77,11111222 
TABS,ioos:station:wmo:42044:1,2016-05-01T22:00:00Z,26.1914,-97.0507,2.0,30.94,11111222 
TABS,ioos:station:wmo:42044:1,2016-05-01T22:30:00Z,26.1914,-97.0507,2.0,30.86,11111222 
TABS,ioos:station:wmo:42044:1,2016-05-01T23:00:00Z,26.1914,-97.0507,2.0,30.99,11111222 
TABS,ioos:station:wmo:42044:1,2016-05-01T23:30:00Z,26.1914,-97.0507,2.0,31.1,11111222 
TABS,ioos:station:wmo:42044:1,2016-05-02T00:00:00Z,26.1914,-97.0507,2.0,31.11,11111222 
TABS,ioos:station:wmo:42044:1,2016-05-02T00:30:00Z,26.1914,-97.0507,2.0,31.22,11111222 
TABS,ioos:station:wmo:42044:1,2016-05-02T01:00:00Z,26.1914,-97.0507,2.0,31.39,11111222 
TABS,ioos:station:wmo:42044:1,2016-05-02T01:30:00Z,26.1914,-97.0507,2.0,31.36,11111222 
TABS,ioos:station:wmo:42044:1,2016-05-02T02:00:00Z,26.1914,-97.0507,2.0,31.28,11111222 
TABS,ioos:station:wmo:42044:1,2016-05-02T02:30:00Z,26.1914,-97.0507,2.0,31.24,11111222 
TABS,ioos:station:wmo:42044:1,2016-05-02T03:00:00Z,26.1914,-97.0507,2.0,31.19,11111222 
TABS,ioos:station:wmo:42044:1,2016-05-02T03:30:00Z,26.1914,-97.0507,2.0,31.21,11111222 
TABS,ioos:station:wmo:42044:1,2016-05-02T04:00:00Z,26.1914,-97.0507,2.0,31.08,11111222 
TABS,ioos:station:wmo:42044:1,2016-05-02T04:30:00Z,26.1914,-97.0507,2.0,30.94,11111222 
TABS,ioos:station:wmo:42044:1,2016-05-02T05:00:00Z,26.1914,-97.0507,2.0,30.82,11111222 
TABS,ioos:station:wmo:42044:1,2016-05-02T05:30:00Z,26.1914,-97.0507,2.0,30.56,11111222 
TABS,ioos:station:wmo:42044:1,2016-05-02T06:00:00Z,26.1914,-97.0507,2.0,30.57,11111222 
TABS,ioos:station:wmo:42044:1,2016-05-02T06:30:00Z,26.1914,-97.0507,2.0,30.54,11111222 
TABS,ioos:station:wmo:42044:1,2016-05-02T07:00:00Z,26.1914,-97.0507,2.0,30.43,11111222 
TABS,ioos:station:wmo:42044:1,2016-05-02T07:30:00Z,26.1914,-97.0507,2.0,30.36,11111222 
TABS,ioos:station:wmo:42044:1,2016-05-02T08:00:00Z,26.1914,-97.0507,2.0,30.29,11111222 
TABS,ioos:station:wmo:42044:1,2016-05-02T08:30:00Z,26.1914,-97.0507,2.0,30.02,11111222 
TABS,ioos:station:wmo:42044:1,2016-05-02T09:00:00Z,26.1914,-97.0507,2.0,30.07,11111222 
TABS,ioos:station:wmo:42044:1,2016-05-02T09:30:00Z,26.1914,-97.0507,2.0,30.03,11111222 
TABS,ioos:station:wmo:42044:1,2016-05-02T10:00:00Z,26.1914,-97.0507,2.0,30.09,11111222 
TABS,ioos:station:wmo:42044:1,2016-05-02T10:30:00Z,26.1914,-97.0507,2.0,30.08,11111222 
TABS,ioos:station:wmo:42044:1,2016-05-02T11:00:00Z,26.1914,-97.0507,2.0,30.09,11111222 
TABS,ioos:station:wmo:42044:1,2016-05-02T11:30:00Z,26.1914,-97.0507,2.0,30.0,11111222 
TABS,ioos:station:wmo:42044:1,2016-05-02T12:00:00Z,26.1914,-97.0507,2.0,29.98,11111222 
TABS,ioos:station:wmo:42044:1,2016-05-02T12:30:00Z,26.1914,-97.0507,2.0,29.89,11111222 
TABS,ioos:station:wmo:42044:1,2016-05-02T13:00:00Z,26.1914,-97.0507,2.0,29.85,11111222 
TABS,ioos:station:wmo:42044:1,2016-05-02T13:30:00Z,26.1914,-97.0507,2.0,29.84,11111222 
TABS,ioos:station:wmo:42044:1,2016-05-02T14:00:00Z,26.1914,-97.0507,2.0,29.81,11111222 
TABS,ioos:station:wmo:42044:1,2016-05-02T14:30:00Z,26.1914,-97.0507,2.0,29.08,11111222 
TABS,ioos:station:wmo:42044:1,2016-05-02T15:00:00Z,26.1914,-97.0507,2.0,28.44,11111222 
TABS,ioos:station:wmo:42044:1,2016-05-02T15:30:00Z,26.1914,-97.0507,2.0,28.45,11111222 
TABS,ioos:station:wmo:42044:1,2016-05-02T16:00:00Z,26.1914,-97.0507,2.0,28.42,11111222 
TABS,ioos:station:wmo:42044:1,2016-05-02T16:30:00Z,26.1914,-97.0507,2.0,28.28,11111222 
TABS,ioos:station:wmo:42044:1,2016-05-02T17:00:00Z,26.1914,-97.0507,2.0,28.77,11111222 
TABS,ioos:station:wmo:42044:1,2016-05-02T17:30:00Z,26.1914,-97.0507,2.0,29.37,11111222 
TABS,ioos:station:wmo:42044:1,2016-05-02T18:00:00Z,26.1914,-97.0507,2.0,29.12,11111222 
TABS,ioos:station:wmo:42044:1,2016-05-02T18:30:00Z,26.1914,-97.0507,2.0,29.1,11111222 
TABS,ioos:station:wmo:42044:1,2016-05-02T19:00:00Z,26.1914,-97.0507,2.0,29.25,11111222 
TABS,ioos:station:wmo:42044:1,2016-05-02T19:30:00Z,26.1914,-97.0507,2.0,28.96,11111222 
TABS,ioos:station:wmo:42044:1,2016-05-02T20:00:00Z,26.1914,-97.0507,2.0,28.9,11111222 
TABS,ioos:station:wmo:42044:1,2016-05-02T20:30:00Z,26.1914,-97.0507,2.0,29.07,11111222 
TABS,ioos:station:wmo:42044:1,2016-05-02T21:00:00Z,26.1914,-97.0507,2.0,29.16,11111222 
TABS,ioos:station:wmo:42044:1,2016-05-02T21:30:00Z,26.1914,-97.0507,2.0,29.1,11111222 
TABS,ioos:station:wmo:42044:1,2016-05-02T22:00:00Z,26.1914,-97.0507,2.0,28.86,11111222 
TABS,ioos:station:wmo:42044:1,2016-05-02T22:30:00Z,26.1914,-97.0507,2.0,28.7,11111222 
TABS,ioos:station:wmo:42044:1,2016-05-02T23:00:00Z,26.1914,-97.0507,2.0,28.79,11111222 
TABS,ioos:station:wmo:42044:1,2016-05-02T23:30:00Z,26.1914,-97.0507,2.0,28.66,11111222 
TABS,ioos:station:wmo:42044:1,2016-05-03T00:00:00Z,26.1914,-97.0507,2.0,28.59,11111222 
TABS,ioos:station:wmo:42044:1,2016-05-03T00:30:00Z,26.1914,-97.0507,2.0,28.62,11111222 
TABS,ioos:station:wmo:42044:1,2016-05-03T01:00:00Z,26.1914,-97.0507,2.0,28.51,11111222 
TABS,ioos:station:wmo:42044:1,2016-05-03T01:30:00Z,26.1914,-97.0507,2.0,27.95,11111222 
TABS,ioos:station:wmo:42044:1,2016-05-03T02:00:00Z,26.1914,-97.0507,2.0,27.4,11111222 
TABS,ioos:station:wmo:42044:1,2016-05-03T02:30:00Z,26.1914,-97.0507,2.0,27.13,11111222 
TABS,ioos:station:wmo:42044:1,2016-05-03T03:00:00Z,26.1914,-97.0507,2.0,27.11,11111222 
TABS,ioos:station:wmo:42044:1,2016-05-03T03:30:00Z,26.1914,-97.0507,2.0,27.2,11111222 
TABS,ioos:station:wmo:42044:1,2016-05-03T04:00:00Z,26.1914,-97.0507,2.0,27.21,11111222 
TABS,ioos:station:wmo:42044:1,2016-05-03T04:30:00Z,26.1914,-97.0507,2.0,27.34,11111222 
TABS,ioos:station:wmo:42044:1,2016-05-03T05:00:00Z,26.1914,-97.0507,2.0,27.38,11111222 
TABS,ioos:station:wmo:42044:1,2016-05-03T05:30:00Z,26.1914,-97.0507,2.0,27.38,11111222 
TABS,ioos:station:wmo:42044:1,2016-05-03T06:00:00Z,26.1914,-97.0507,2.0,27.33,11111222 
TABS,ioos:station:wmo:42044:1,2016-05-03T06:30:00Z,26.1914,-97.0507,2.0,27.3,11111222 
TABS,ioos:station:wmo:42044:1,2016-05-03T07:00:00Z,26.1914,-97.0507,2.0,27.24,11111222 
TABS,ioos:station:wmo:42044:1,2016-05-03T07:30:00Z,26.1914,-97.0507,2.0,27.23,11111222 
TABS,ioos:station:wmo:42044:1,2016-05-03T08:00:00Z,26.1914,-97.0507,2.0,27.19,11111222 
TABS,ioos:station:wmo:42044:1,2016-05-03T08:30:00Z,26.1914,-97.0507,2.0,27.07,11111222 
TABS,ioos:station:wmo:42044:1,2016-05-03T09:00:00Z,26.1914,-97.0507,2.0,26.97,11111222 
TABS,ioos:station:wmo:42044:1,2016-05-03T09:30:00Z,26.1914,-97.0507,2.0,26.97,11111222 
TABS,ioos:station:wmo:42044:1,2016-05-03T10:00:00Z,26.1914,-97.0507,2.0,26.86,11111222 
TABS,ioos:station:wmo:42044:1,2016-05-03T10:30:00Z,26.1914,-97.0507,2.0,26.85,11111222 
TABS,ioos:station:wmo:42044:1,2016-05-03T11:00:00Z,26.1914,-97.0507,2.0,26.82,11111222 
TABS,ioos:station:wmo:42044:1,2016-05-03T11:30:00Z,26.1914,-97.0507,2.0,26.74,11111222 
TABS,ioos:station:wmo:42044:1,2016-05-03T12:00:00Z,26.1914,-97.0507,2.0,26.72,11111222 
TABS,ioos:station:wmo:42044:1,2016-05-03T12:30:00Z,26.1914,-97.0507,2.0,26.86,11111222 
TABS,ioos:station:wmo:42044:1,2016-05-03T13:00:00Z,26.1914,-97.0507,2.0,27.11,11111222 
TABS,ioos:station:wmo:42044:1,2016-05-03T13:30:00Z,26.1914,-97.0507,2.0,27.23,11111222 
TABS,ioos:station:wmo:42044:1,2016-05-03T14:00:00Z,26.1914,-97.0507,2.0,27.16,11111222 
TABS,ioos:station:wmo:42044:1,2016-05-03T14:30:00Z,26.1914,-97.0507,2.0,27.67,11111222 
TABS,ioos:station:wmo:42044:1,2016-05-03T15:00:00Z,26.1914,-97.0507,2.0,27.75,11111222 
TABS,ioos:station:wmo:42044:1,2016-05-03T15:30:00Z,26.1914,-97.0507,2.0,27.88,11111222 
TABS,ioos:station:wmo:42044:1,2016-05-03T16:00:00Z,26.1914,-97.0507,2.0,27.91,11111222 
TABS,ioos:station:wmo:42044:1,2016-05-03T16:30:00Z,26.1914,-97.0507,2.0,28.07,11111222 
TABS,ioos:station:wmo:42044:1,2016-05-03T17:00:00Z,26.1914,-97.0507,2.0,28.05,11111222 
TABS,ioos:station:wmo:42044:1,2016-05-03T17:30:00Z,26.1914,-97.0507,2.0,28.03,11111222 
TABS,ioos:station:wmo:42044:1,2016-05-03T18:00:00Z,26.1914,-97.0507,2.0,27.96,11111222 
TABS,ioos:station:wmo:42044:1,2016-05-03T18:30:00Z,26.1914,-97.0507,2.0,27.72,11111222 
TABS,ioos:station:wmo:42044:1,2016-05-03T19:00:00Z,26.1914,-97.0507,2.0,27.67,11111222 
TABS,ioos:station:wmo:42044:1,2016-05-03T19:30:00Z,26.1914,-97.0507,2.0,27.47,11111222 
TABS,ioos:station:wmo:42044:1,2016-05-03T20:00:00Z,26.1914,-97.0507,2.0,27.3,11111222 
TABS,ioos:station:wmo:42044:1,2016-05-03T20:30:00Z,26.1914,-97.0507,2.0,27.22,11111222 
TABS,ioos:station:wmo:42044:1,2016-05-03T21:00:00Z,26.1914,-97.0507,2.0,26.78,11111222 
TABS,ioos:station:wmo:42044:1,2016-05-03T21:30:00Z,26.1914,-97.0507,2.0,26.86,11111222 
TABS,ioos:station:wmo:42044:1,2016-05-03T22:00:00Z,26.1914,-97.0507,2.0,26.97,11111222 
TABS,ioos:station:wmo:42044:1,2016-05-03T22:30:00Z,26.1914,-97.0507,2.0,26.96,11111222 
TABS,ioos:station:wmo:42044:1,2016-05-03T23:00:00Z,26.1914,-97.0507,2.0,26.98,11111222 
TABS,ioos:station:wmo:42044:1,2016-05-03T23:30:00Z,26.1914,-97.0507,2.0,26.75,11111222 
TABS,ioos:station:wmo:42044:1,2016-05-04T00:00:00Z,26.1914,-97.0507,2.0,26.76,11111222 
TABS,ioos:station:wmo:42044:1,2016-05-04T00:30:00Z,26.1914,-97.0507,2.0,26.75,11111222 
TABS,ioos:station:wmo:42044:1,2016-05-04T01:00:00Z,26.1914,-97.0507,2.0,26.61,11111222 
TABS,ioos:station:wmo:42044:1,2016-05-04T01:30:00Z,26.1914,-97.0507,2.0,26.65,11111222 
TABS,ioos:station:wmo:42044:1,2016-05-04T02:00:00Z,26.1914,-97.0507,2.0,26.58,11111222 
TABS,ioos:station:wmo:42044:1,2016-05-04T02:30:00Z,26.1914,-97.0507,2.0,26.51,11111222 
TABS,ioos:station:wmo:42044:1,2016-05-04T03:00:00Z,26.1914,-97.0507,2.0,26.43,11111222 
TABS,ioos:station:wmo:42044:1,2016-05-04T03:30:00Z,26.1914,-97.0507,2.0,26.4,11111222 
TABS,ioos:station:wmo:42044:1,2016-05-04T04:00:00Z,26.1914,-97.0507,2.0,26.56,11111222 
TABS,ioos:station:wmo:42044:1,2016-05-04T04:30:00Z,26.1914,-97.0507,2.0,26.95,11111222 
TABS,ioos:station:wmo:42044:1,2016-05-04T05:00:00Z,26.1914,-97.0507,2.0,27.08,11111222 
TABS,ioos:station:wmo:42044:1,2016-05-04T05:30:00Z,26.1914,-97.0507,2.0,26.96,11111222 
TABS,ioos:station:wmo:42044:1,2016-05-04T06:00:00Z,26.1914,-97.0507,2.0,26.85,11111222 
TABS,ioos:station:wmo:42044:1,2016-05-04T06:30:00Z,26.1914,-97.0507,2.0,26.72,11111222 
TABS,ioos:station:wmo:42044:1,2016-05-04T07:00:00Z,26.1914,-97.0507,2.0,26.71,11111222 
TABS,ioos:station:wmo:42044:1,2016-05-04T07:30:00Z,26.1914,-97.0507,2.0,26.67,11111222 
TABS,ioos:station:wmo:42044:1,2016-05-04T08:00:00Z,26.1914,-97.0507,2.0,26.56,11111222 
TABS,ioos:station:wmo:42044:1,2016-05-04T08:30:00Z,26.1914,-97.0507,2.0,26.71,11111222 
TABS,ioos:station:wmo:42044:1,2016-05-04T09:00:00Z,26.1914,-97.0507,2.0,26.67,11111222 
TABS,ioos:station:wmo:42044:1,2016-05-04T09:30:00Z,26.1914,-97.0507,2.0,26.7,11111222 
TABS,ioos:station:wmo:42044:1,2016-05-04T10:00:00Z,26.1914,-97.0507,2.0,26.61,11111222 
TABS,ioos:station:wmo:42044:1,2016-05-04T10:30:00Z,26.1914,-97.0507,2.0,26.47,11111222 
TABS,ioos:station:wmo:42044:1,2016-05-04T11:00:00Z,26.1914,-97.0507,2.0,26.62,11111222 
TABS,ioos:station:wmo:42044:1,2016-05-04T11:30:00Z,26.1914,-97.0507,2.0,26.62,11111222 
TABS,ioos:station:wmo:42044:1,2016-05-04T12:00:00Z,26.1914,-97.0507,2.0,25.72,11111222 
TABS,ioos:station:wmo:42044:1,2016-05-04T12:30:00Z,26.1914,-97.0507,2.0,25.7,11111222 
TABS,ioos:station:wmo:42044:1,2016-05-04T13:00:00Z,26.1914,-97.0507,2.0,25.79,11111222 
TABS,ioos:station:wmo:42044:1,2016-05-04T13:30:00Z,26.1914,-97.0507,2.0,25.88,11111222 
TABS,ioos:station:wmo:42044:1,2016-05-04T14:00:00Z,26.1914,-97.0507,2.0,25.84,11111222 
TABS,ioos:station:wmo:42044:1,2016-05-04T14:30:00Z,26.1914,-97.0507,2.0,25.75,11111222 
TABS,ioos:station:wmo:42044:1,2016-05-04T15:00:00Z,26.1914,-97.0507,2.0,25.74,11111222 
TABS,ioos:station:wmo:42044:1,2016-05-04T15:30:00Z,26.1914,-97.0507,2.0,25.54,11111222 
TABS,ioos:station:wmo:42044:1,2016-05-04T16:00:00Z,26.1914,-97.0507,2.0,25.42,11111222 
TABS,ioos:station:wmo:42044:1,2016-05-04T16:30:00Z,26.1914,-97.0507,2.0,25.27,11111222 
TABS,ioos:station:wmo:42044:1,2016-05-04T17:00:00Z,26.1914,-97.0507,2.0,25.27,11111222 
TABS,ioos:station:wmo:42044:1,2016-05-04T17:30:00Z,26.1914,-97.0507,2.0,25.22,11111222 
TABS,ioos:station:wmo:42044:1,2016-05-04T18:00:00Z,26.1914,-97.0507,2.0,25.16,11111222 
TABS,ioos:station:wmo:42044:1,2016-05-04T18:30:00Z,26.1914,-97.0507,2.0,25.11,11111222 
TABS,ioos:station:wmo:42044:1,2016-05-04T19:00:00Z,26.1914,-97.0507,2.0,24.99,11111222 
TABS,ioos:station:wmo:42044:1,2016-05-04T19:30:00Z,26.1914,-97.0507,2.0,24.95,11111222 
TABS,ioos:station:wmo:42044:1,2016-05-04T20:00:00Z,26.1914,-97.0507,2.0,24.78,11111222 
TABS,ioos:station:wmo:42044:1,2016-05-04T20:30:00Z,26.1914,-97.0507,2.0,24.76,11111222 
TABS,ioos:station:wmo:42044:1,2016-05-04T21:00:00Z,26.1914,-97.0507,2.0,24.57,11111222 
TABS,ioos:station:wmo:42044:1,2016-05-04T21:30:00Z,26.1914,-97.0507,2.0,24.54,11111222 
TABS,ioos:station:wmo:42044:1,2016-05-04T22:00:00Z,26.1914,-97.0507,2.0,24.42,11111222 
TABS,ioos:station:wmo:42044:1,2016-05-04T22:30:00Z,26.1914,-97.0507,2.0,24.34,11111222 
TABS,ioos:station:wmo:42044:1,2016-05-04T23:00:00Z,26.1914,-97.0507,2.0,24.24,11111222 
TABS,ioos:station:wmo:42044:1,2016-05-04T23:30:00Z,26.1914,-97.0507,2.0,24.17,11111222 
TABS,ioos:station:wmo:42044:1,2016-05-05T00:00:00Z,26.1914,-97.0507,2.0,24.15,11111222 
TABS,ioos:station:wmo:42044:1,2016-05-05T00:30:00Z,26.1914,-97.0507,2.0,24.19,11111222 
TABS,ioos:station:wmo:42044:1,2016-05-05T01:00:00Z,26.1914,-97.0507,2.0,24.13,11111222 
TABS,ioos:station:wmo:42044:1,2016-05-05T01:30:00Z,26.1914,-97.0507,2.0,24.14,11111222 
TABS,ioos:station:wmo:42044:1,2016-05-05T02:00:00Z,26.1914,-97.0507,2.0,24.23,11111222 
TABS,ioos:station:wmo:42044:1,2016-05-05T02:30:00Z,26.1914,-97.0507,2.0,24.23,11111222 
TABS,ioos:station:wmo:42044:1,2016-05-05T03:00:00Z,26.1914,-97.0507,2.0,24.15,11111222 
TABS,ioos:station:wmo:42044:1,2016-05-05T03:30:00Z,26.1914,-97.0507,2.0,24.2,11111222 
TABS,ioos:station:wmo:42044:1,2016-05-05T04:00:00Z,26.1914,-97.0507,2.0,24.22,11111222 
TABS,ioos:station:wmo:42044:1,2016-05-05T04:30:00Z,26.1914,-97.0507,2.0,24.23,11111222 
TABS,ioos:station:wmo:42044:1,2016-05-05T05:00:00Z,26.1914,-97.0507,2.0,24.17,11111222 
TABS,ioos:station:wmo:42044:1,2016-05-05T05:30:00Z,26.1914,-97.0507,2.0,24.21,11111222 
TABS,ioos:station:wmo:42044:1,2016-05-05T06:00:00Z,26.1914,-97.0507,2.0,24.18,11111222 
TABS,ioos:station:wmo:42044:1,2016-05-05T06:30:00Z,26.1914,-97.0507,2.0,24.18,11111222 
TABS,ioos:station:wmo:42044:1,2016-05-05T07:00:00Z,26.1914,-97.0507,2.0,24.17,11111222 
TABS,ioos:station:wmo:42044:1,2016-05-05T07:30:00Z,26.1914,-97.0507,2.0,24.15,11111222 
TABS,ioos:station:wmo:42044:1,2016-05-05T08:00:00Z,26.1914,-97.0507,2.0,24.22,11111222 
TABS,ioos:station:wmo:42044:1,2016-05-05T08:30:00Z,26.1914,-97.0507,2.0,24.21,11111222 
TABS,ioos:station:wmo:42044:1,2016-05-05T09:00:00Z,26.1914,-97.0507,2.0,24.18,11111222 
TABS,ioos:station:wmo:42044:1,2016-05-05T09:30:00Z,26.1914,-97.0507,2.0,24.19,11111222 
TABS,ioos:station:wmo:42044:1,2016-05-05T10:00:00Z,26.1914,-97.0507,2.0,24.24,11111222 
TABS,ioos:station:wmo:42044:1,2016-05-05T10:30:00Z,26.1914,-97.0507,2.0,24.27,11111222 
TABS,ioos:station:wmo:42044:1,2016-05-05T11:00:00Z,26.1914,-97.0507,2.0,24.29,11111222 
TABS,ioos:station:wmo:42044:1,2016-05-05T11:30:00Z,26.1914,-97.0507,2.0,24.33,11111222 
TABS,ioos:station:wmo:42044:1,2016-05-05T12:00:00Z,26.1914,-97.0507,2.0,24.35,11111222 
TABS,ioos:station:wmo:42044:1,2016-05-05T12:30:00Z,26.1914,-97.0507,2.0,24.36,11111222 
TABS,ioos:station:wmo:42044:1,2016-05-05T13:00:00Z,26.1914,-97.0507,2.0,24.41,11111222 
TABS,ioos:station:wmo:42044:1,2016-05-05T13:30:00Z,26.1914,-97.0507,2.0,24.33,11111222 
TABS,ioos:station:wmo:42044:1,2016-05-05T14:00:00Z,26.1914,-97.0507,2.0,24.3,11111222 
TABS,ioos:station:wmo:42044:1,2016-05-05T14:30:00Z,26.1914,-97.0507,2.0,24.27,11111222 
TABS,ioos:station:wmo:42044:1,2016-05-05T15:00:00Z,26.1914,-97.0507,2.0,24.25,11111222 
TABS,ioos:station:wmo:42044:1,2016-05-05T15:30:00Z,26.1914,-97.0507,2.0,24.24,11111222 
TABS,ioos:station:wmo:42044:1,2016-05-05T16:00:00Z,26.1914,-97.0507,2.0,24.21,11111222 
TABS,ioos:station:wmo:42044:1,2016-05-05T16:30:00Z,26.1914,-97.0507,2.0,24.2,11111222 
TABS,ioos:station:wmo:42044:1,2016-05-05T17:00:00Z,26.1914,-97.0507,2.0,24.18,11111222 
TABS,ioos:station:wmo:42044:1,2016-05-05T17:30:00Z,26.1914,-97.0507,2.0,24.19,11111222 
TABS,ioos:station:wmo:42044:1,2016-05-05T18:00:00Z,26.1914,-97.0507,2.0,24.14,11111222 
TABS,ioos:station:wmo:42044:1,2016-05-05T18:30:00Z,26.1914,-97.0507,2.0,24.15,11111222 
TABS,ioos:station:wmo:42044:1,2016-05-05T19:00:00Z,26.1914,-97.0507,2.0,24.0,11111222 
TABS,ioos:station:wmo:42044:1,2016-05-05T19:30:00Z,26.1914,-97.0507,2.0,24.04,11111222 
TABS,ioos:station:wmo:42044:1,2016-05-05T20:00:00Z,26.1914,-97.0507,2.0,24.03,11111222 
TABS,ioos:station:wmo:42044:1,2016-05-05T20:30:00Z,26.1914,-97.0507,2.0,23.98,11111222 
TABS,ioos:station:wmo:42044:1,2016-05-05T21:00:00Z,26.1914,-97.0507,2.0,23.98,11111222 
TABS,ioos:station:wmo:42044:1,2016-05-05T21:30:00Z,26.1914,-97.0507,2.0,23.94,11111222 
TABS,ioos:station:wmo:42044:1,2016-05-05T22:00:00Z,26.1914,-97.0507,2.0,24.0,11111222 
TABS,ioos:station:wmo:42044:1,2016-05-05T22:30:00Z,26.1914,-97.0507,2.0,24.06,11111222 
TABS,ioos:station:wmo:42044:1,2016-05-05T23:00:00Z,26.1914,-97.0507,2.0,23.97,11111222 
TABS,ioos:station:wmo:42044:1,2016-05-05T23:30:00Z,26.1914,-97.0507,2.0,24.08,11111222 
TABS,ioos:station:wmo:42044:1,2016-05-06T00:00:00Z,26.1914,-97.0507,2.0,24.06,11111222 
TABS,ioos:station:wmo:42044:1,2016-05-06T00:30:00Z,26.1914,-97.0507,2.0,24.13,11111222 
TABS,ioos:station:wmo:42044:1,2016-05-06T01:00:00Z,26.1914,-97.0507,2.0,24.15,11111222 
TABS,ioos:station:wmo:42044:1,2016-05-06T01:30:00Z,26.1914,-97.0507,2.0,24.12,11111222 
TABS,ioos:station:wmo:42044:1,2016-05-06T02:00:00Z,26.1914,-97.0507,2.0,24.29,11111222 
TABS,ioos:station:wmo:42044:1,2016-05-06T02:30:00Z,26.1914,-97.0507,2.0,24.48,11111222 
TABS,ioos:station:wmo:42044:1,2016-05-06T03:00:00Z,26.1914,-97.0507,2.0,24.62,11111222 
TABS,ioos:station:wmo:42044:1,2016-05-06T03:30:00Z,26.1914,-97.0507,2.0,24.73,11111222 
TABS,ioos:station:wmo:42044:1,2016-05-06T04:00:00Z,26.1914,-97.0507,2.0,24.27,11111222 
TABS,ioos:station:wmo:42044:1,2016-05-06T04:30:00Z,26.1914,-97.0507,2.0,24.21,11111222 
TABS,ioos:station:wmo:42044:1,2016-05-06T05:00:00Z,26.1914,-97.0507,2.0,24.2,11111222 
TABS,ioos:station:wmo:42044:1,2016-05-06T05:30:00Z,26.1914,-97.0507,2.0,24.29,11111222 
TABS,ioos:station:wmo:42044:1,2016-05-06T06:00:00Z,26.1914,-97.0507,2.0,24.32,11111222 
TABS,ioos:station:wmo:42044:1,2016-05-06T06:30:00Z,26.1914,-97.0507,2.0,24.3,11111222 
TABS,ioos:station:wmo:42044:1,2016-05-06T07:00:00Z,26.1914,-97.0507,2.0,24.23,11111222 
TABS,ioos:station:wmo:42044:1,2016-05-06T07:30:00Z,26.1914,-97.0507,2.0,24.29,11111222 
TABS,ioos:station:wmo:42044:1,2016-05-06T08:00:00Z,26.1914,-97.0507,2.0,24.32,11111222 
TABS,ioos:station:wmo:42044:1,2016-05-06T08:30:00Z,26.1914,-97.0507,2.0,24.38,11111222 
TABS,ioos:station:wmo:42044:1,2016-05-06T09:00:00Z,26.1914,-97.0507,2.0,24.34,11111222 
TABS,ioos:station:wmo:42044:1,2016-05-06T09:30:00Z,26.1914,-97.0507,2.0,24.29,11111222 
TABS,ioos:station:wmo:42044:1,2016-05-06T10:00:00Z,26.1914,-97.0507,2.0,24.31,11111222 
TABS,ioos:station:wmo:42044:1,2016-05-06T10:30:00Z,26.1914,-97.0507,2.0,24.35,11111222 
TABS,ioos:station:wmo:42044:1,2016-05-06T11:00:00Z,26.1914,-97.0507,2.0,24.33,11111222 
TABS,ioos:station:wmo:42044:1,2016-05-06T11:30:00Z,26.1914,-97.0507,2.0,24.36,11111222 
TABS,ioos:station:wmo:42044:1,2016-05-06T12:00:00Z,26.1914,-97.0507,2.0,24.45,11111222 
TABS,ioos:station:wmo:42044:1,2016-05-06T12:30:00Z,26.1914,-97.0507,2.0,24.57,11111222 
TABS,ioos:station:wmo:42044:1,2016-05-06T13:00:00Z,26.1914,-97.0507,2.0,24.61,11111222 
TABS,ioos:station:wmo:42044:1,2016-05-06T13:30:00Z,26.1914,-97.0507,2.0,24.66,11111222 
TABS,ioos:station:wmo:42044:1,2016-05-06T14:00:00Z,26.1914,-97.0507,2.0,24.71,11111222 
TABS,ioos:station:wmo:42044:1,2016-05-06T14:30:00Z,26.1914,-97.0507,2.0,24.72,11111222 
TABS,ioos:station:wmo:42044:1,2016-05-06T15:00:00Z,26.1914,-97.0507,2.0,24.73,11111222 